Tracking 28790 objects as of 19-Apr-2024
HD Live streaming from Space Station
objects crossing your sky now

COSMOS 2251 DEB

Track COSMOS 2251 DEB now!
10-day predictions


NORAD ID: 36052
Int'l Code: 1993-036AXP
Perigee: 670.6 km
Apogee: 690.7 km
Inclination: 74.0 °
Period: 98.2 minutes
Semi major axis: 7051 km
RCS: 0.0013 m2 (small)
Launch date: June 16, 1993
Source: Commonwealth of Independent States (former USSR) (CIS)
Launch site: PLESETSK MISSILE AND SPACE COMPLEX (PKMTR)

Note: This is SATELLITE DEBRIS
Your satellite tracking list
Your tracking list is empty




NASA's NSSDC Master Catalog

Two Line Element Set (TLE):
1 36052U 93036AXP 24109.70667393  .00026317  00000-0  47704-2 0  9997
2 36052  74.0249 120.6935 0014264 317.8442  42.1628 14.66107878775703
Source of the keplerian elements: AFSPC